Volver al catálogo

MARAFON NO. 2 GMM

ActivoComunicacionesSSO
NORAD 67251·PAYLOAD·🇹🇷 Turkey
Este nombre de satélite aún no ha sido confirmado por fuentes oficiales.

Lanzado Dec 28, 2025 desde Vostochny Cosmodrome

Loading…

Próximos Pases (próximas 24 horas)

TLE

ActualizadoSource: Space-Track

Época: Sep 14, 2026, 03:18 UTC

1 67251U 25313D   26257.13797768  .00001731  00000-0  15109-3 0  9996
2 67251  97.5606 323.6695 0148474  31.9638 329.0481 14.89988251 38641

Sigue MARAFON NO. 2 GMM en tiempo real con AllMySat

Download on the App Store